Find Starlink 31947

NORAD ID: 59835 Int'l Des: 2024-097 Owner: SPXS Country: US Constellation: starlink operational
LEOCIRCULAR

Live Position

Loading 3D Globe...

About Starlink 31947

Description loading...

Upcoming Passes

Passes for default location (London). Set your location on the main map for personalized predictions.

Altitude History

Loading altitude history...

Two-Line Element Set

1 59835U 24097A 26124.88462426 .00001199 00000-0 53091-4 0 9999
2 59835 43.0020 316.7871 0001328 264.6848 95.3852 15.27579819110510
Epoch: May 4, 2026 • Age: 22 hours

Current Status

Altitude 489.2 km
Velocity 7.62 km/s
Sub-Earth Point -26.76°S, 130.15°E
Launch Date May 23, 2024
Age 1.9 years
Type internet

Technical Details

Classification Payload
Mass 730.00 kg
Dry Mass 700.00 kg
Total Mass 730.00 kg
Length 0.30 m
Diameter 4.10 m
Span 29.00 m
Shape Box + pan
Manufacturer SPXS
Bus Type Starlink V2M
Phase Status In Orbit
Owner/State SPXS/US

Most Searched